HAWK-2A

Last updated on Sun Jun 21 2026 00:03:43 GMT+0000 (Coordinated Universal Time)

1 47505U 21006CW 26171.15405930 .00005164 00000+0 15576-3 0 9996 2 47505 97.2316 216.0844 0006465 178.2900 181.8366 15.34707718299954
UTC large
Height (km)
Speed (km/s)
/
Latitude / Longitude
Inclination (degrees)
Orbital Period (minutes)
Azimuth
Elevation
Range (km)
Doppler Factor

Next 0 passes for location: London (51.5072 / 0.1276)

No passes found over London.
HAWK-2A